Regional Weather Roundup
Issued by NWS

Home | Current Version | Previous Version | Graphics & Text | Print | Product List | Glossary On
Versions: 1 2 3 4 5 6 7 8 9 10 11 12 13 14 15 16 17 18 19 20 21 22 23 24 25 26 27 28 29 30 31 32 33 34 35 36 37 38 39 40 41 42 43 44 45 46 47 48 49 50
000
ASUS44 KMEG 281200
RWRTN
TENNESSEE HOURLY STATE WEATHER ROUNDUP
NATIONAL WEATHER SERVICE MEMPHIS TN
700 AM CDT TUE JUL 28 2015

TNZ002-004-019-021-049-052-054-088>092-281300-
WEST TENNESSEE

CITY           SKY/WX    TMP DP  RH WIND       PRES   REMARKS
MEMPHIS INTL   PTCLDY    82  75  79 CALM      29.98R
NWS MEMPHIS      N/A     78 N/A N/A MISG        N/A
JACKSON        SUNNY     78  75  90 S3        29.98S FOG
DYERSBURG        N/A    N/A N/A N/A MISG        N/A
PARIS          SUNNY     73  72  94 CALM      30.00R
LEXINGTON      PTSUNNY   73  73 100 CALM      29.99R VSB 1/2
$$

TNZ008-025-027-028-033-062-065-066-281300-
NORTH MIDDLE TENNESSEE

CITY           SKY/WX    TMP DP  RH WIND       PRES   REMARKS
NASHVILLE      MOSUNNY   78  76  93 CALM      30.00R FOG
CLARKSVILLE    SUNNY     75  73  93 CALM      29.98S FOG
COOKEVILLE     MOSUNNY   75  73  94 CALM      30.02S
CROSSVILLE     PTSUNNY   74  71  91 CALM      30.08R
$$

TNZ061-075-076-078-094-096-097-281300-
SOUTH MIDDLE TENNESSEE

CITY           SKY/WX    TMP DP  RH WIND       PRES   REMARKS
FAYETTEVILLE   SUNNY     75  72  88 CALM      30.02S
TULLAHOMA      SUNNY     75  72  88 CALM      30.04R
WINCHESTER     SUNNY     73  72  94 CALM      30.03R
MCMINNVILLE    SUNNY     73  73 100 CALM      30.03S
COLUMBIA       SUNNY     77  77 100 CALM      29.99S
SHELBYVILLE    SUNNY     75  75 100 CALM      30.02S
$$

TNZ017-018-042-046-047-281300-
NORTHEAST TENNESSEE

CITY           SKY/WX    TMP DP  RH WIND       PRES   REMARKS
TRI CITIES     PTSUNNY   74  71  91 CALM      30.07R FOG
ELIZABETHTON   MOSUNNY   70  70 100 CALM      30.08R
$$

TNZ012-013-036-069-073-074-281300-
CENTRAL EAST TENNESSEE

CITY           SKY/WX    TMP DP  RH WIND       PRES   REMARKS
KNOXVILLE      CLOUDY    75  72  90 E5        30.03R
OAK RIDGE      MOSUNNY   75  71  87 CALM      30.04R
GATLINBURG     MOSUNNY   75  70  83 W3        30.03S
$$

TNZ083-085-099-281300-
SOUTHEAST TENNESSEE

CITY           SKY/WX    TMP DP  RH WIND       PRES   REMARKS
CHATTANOOGA    PTSUNNY   78  73  84 W3        30.01S
$$

SKY/WX REPORTED AS FAIR MEANS FEW OR NO CLOUDS BELOW
12 THOUSAND FEET.



USA.gov is the U.S. government's official web portal to all federal, state and local government web resources and services.